This demonstration page uses our WeatherBlox Daily Observations layout. Learn more.

Left ArrowRight Arrow

Hourly Observations for May 23, 2022

Temp ( °F °C ) Dew Point ( °F °C ) Humidity (%) Winds ( mph kmh ) Pressure ( in mb ) Visibility ( mi km ) Precip ( " mm )
12:53 am 00:53 Partly Cloudy 66 18.9 38 3.3 36 36 N 5 7 29.98 1015 10 16 0.00 0.00
1:53 am 01:53 Partly Cloudy 65 18.3 39 3.9 39 39 N 7 11 29.95 1014 10 16 0.00 0.00
2:53 am 02:53 Mostly Cloudy 65 18.3 39 3.9 39 39 N 5 7 29.94 1014 10 16 0.00 0.00
3:53 am 03:53 Partly Cloudy 64 17.8 39 3.9 40 40 NNW 8 13 29.92 1013 10 16 0.00 0.00
4:53 am 04:53 Cloudy 67 19.4 42 5.6 41 41 NE 3 6 29.92 1013 10 16 0.00 0.00
5:53 am 05:53 Mostly Clear 66 18.9 45 7.2 47 47 E 8 13 29.88 1012 10 16 0.00 0.00
6:53 am 06:53 Sunny 66 18.9 48 8.9 52 52 ESE 7 11 29.87 1012 10 16 0.00 0.00
7:53 am 07:53 Sunny 68 20 53 11.7 59 59 ESE 10 17 29.86 1011 10 16 0.00 0.00
8:53 am 08:53 Sunny 71 21.7 59 15 66 66 SE 14 22 29.86 1011 10 16 0.00 0.00
9:53 am 09:53 Sunny 74 23.3 60 15.6 62 62 SE 18 30 29.87 1012 10 16 0.00 0.00
10:53 am 10:53 Mostly Sunny 76 24.4 59 15 56 56 SE 9 15 29.85 1011 10 16 0.00 0.00
11:53 am 11:53 Sunny 78 25.6 58 14.4 50 50 SSE 14 22 29.84 1011 10 16 0.00 0.00
12:04 pm 12:04 Mostly Sunny 80 26.7 56 13.3 44 44 S 18 30 29.77 1008 10 16 0.00 0.00
12:53 pm 12:53 Sunny 80 26.7 48 8.9 33 33 S 18 30 29.82 1010 10 16 0.00 0.00
1:53 pm 13:53 Sunny 84 28.9 46 7.8 27 27 SSE 12 19 29.77 1008 10 16 0.00 0.00
2:53 pm 14:53 Sunny 85 29.4 44 6.7 24 24 S 13 20 29.73 1007 10 16 0.00 0.00
3:53 pm 15:53 Sunny 85 29.4 43 6.1 23 23 SW 12 19 29.69 1006 10 16 0.00 0.00
4:53 pm 16:53 Sunny 88 31.1 42 5.6 20 20 S 15 24 29.65 1004 10 16 0.00 0.00
5:53 pm 17:53 Sunny 88 31.1 40 4.4 18 18 SSE 15 24 29.63 1003 10 16 0.00 0.00
6:53 pm 18:53 Sunny 87 30.6 44 6.7 22 22 SE 23 37 29.60 1002 10 16 0.00 0.00
7:53 pm 19:53 Sunny 85 29.4 44 6.7 24 24 SE 20 31 29.58 1002 10 16 0.00 0.00
8:53 pm 20:53 Clear 81 27.2 55 12.8 41 41 SSE 24 39 29.60 1002 10 16 0.00 0.00
9:53 pm 21:53 Clear 79 26.1 56 13.3 45 45 SE 24 39 29.61 1003 10 16 0.00 0.00
10:53 pm 22:53 Mostly Clear 74 23.3 59 15 60 60 SE 25 41 29.64 1004 10 16 0.00 0.00
11:53 pm 23:53 Mostly Cloudy with Nearby Thunderstorms 71 21.7 61 16.1 71 71 ESE 13 20 29.69 1005 9 14 0.00 0.00

Powered by AerisWeather